When you browse on this site, cookies collect data to enhance your experience and personalize the content and advertising you see.
Visit our Privacy Policy to learn more. By continuing to use the site, you agree to this use of cookies and data.
  • In Denmark
  • List of Countries
  • For 7 days
  • Water Temperature
  • Satellite Maps
  • Weather Map
  • Weather Widgets
  • user-avatar
    Login

    Hourly Weather Lincoln

    Today, 17 June, Monday

    Time Temperature Precipitation Wind Pressure Humidity
    00:00 +12°C° 0 mm 5 mps 756 mmHg 92%
    01:00 +10°C° 0 mm 5 mps 756 mmHg 92%
    02:00 +10°C° 0 mm 5 mps 756 mmHg 93%
    03:00 +9°C° 0 mm 5 mps 756 mmHg 93%
    04:00 +10°C° 0 mm 6 mps 756 mmHg 92%
    05:00 +10°C° 0 mm 6 mps 756 mmHg 91%
    06:00 +10°C° 0 mm 6 mps 756 mmHg 90%
    07:00 +13°C° 0 mm 6 mps 756 mmHg 87%
    08:00 +14°C° 0 mm 7 mps 756 mmHg 83%
    09:00 +16°C° 0 mm 7 mps 756 mmHg 80%
    10:00 +16°C° 0.1 mm 7 mps 756 mmHg 79%
    11:00 +17°C° 0.1 mm 7 mps 756 mmHg 78%
    12:00 +18°C° 0.1 mm 7 mps 756 mmHg 77%
    13:00 +18°C° 0.5 mm 7 mps 756 mmHg 78%
    14:00 +18°C° 0.5 mm 7 mps 756 mmHg 79%
    15:00 +19°C° 0.5 mm 6 mps 756 mmHg 80%
    16:00 +19°C° 0.5 mm 6 mps 756 mmHg 83%
    17:00 +17°C° 0.5 mm 5 mps 755 mmHg 85%
    18:00 +18°C° 0.5 mm 4 mps 755 mmHg 88%
    19:00 +15°C° 0.1 mm 4 mps 755 mmHg 89%
    20:00 +14°C° 0.1 mm 3 mps 756 mmHg 91%
    21:00 +13°C° 0.1 mm 3 mps 756 mmHg 93%
    22:00 +13°C° 0 mm 3 mps 756 mmHg 93%
    23:00 +12°C° 0 mm 3 mps 756 mmHg 94%

    Tomorrow, 18 June, Tuesday

    Time Temperature Precipitation Wind Pressure Humidity
    00:00 +12°C° 0 mm 3 mps 756 mmHg 95%
    01:00 +11°C° 0 mm 3 mps 756 mmHg 95%
    02:00 +12°C° 0 mm 2 mps 756 mmHg 95%
    03:00 +10°C° 0 mm 2 mps 756 mmHg 95%
    04:00 +12°C° 0 mm 2 mps 756 mmHg 94%
    05:00 +12°C° 0 mm 3 mps 756 mmHg 92%
    06:00 +12°C° 0 mm 3 mps 756 mmHg 91%
    07:00 +14°C° 0 mm 3 mps 756 mmHg 86%
    08:00 +16°C° 0 mm 3 mps 756 mmHg 82%
    09:00 +17°C° 0 mm 3 mps 756 mmHg 77%
    10:00 +18°C° 0.1 mm 3 mps 755 mmHg 76%
    11:00 +19°C° 0.1 mm 3 mps 755 mmHg 74%
    12:00 +19°C° 0.1 mm 3 mps 755 mmHg 72%
    13:00 +20°C° 0.1 mm 3 mps 755 mmHg 71%
    14:00 +20°C° 0.1 mm 2 mps 754 mmHg 70%
    15:00 +20°C° 0.1 mm 2 mps 754 mmHg 70%
    16:00 +19°C° 0.5 mm 2 mps 754 mmHg 77%
    17:00 +17°C° 0.5 mm 2 mps 754 mmHg 85%
    18:00 +16°C° 0.5 mm 2 mps 753 mmHg 92%
    19:00 +16°C° 1.4 mm 1 mps 753 mmHg 94%
    20:00 +15°C° 1.4 mm 1 mps 753 mmHg 96%
    21:00 +15°C° 1.4 mm 1 mps 753 mmHg 97%
    22:00 +15°C° 0.8 mm 1 mps 753 mmHg 97%
    23:00 +14°C° 0.8 mm 1 mps 753 mmHg 98%

    Day after tomorrow, 19 June, Wednesday

    Time Temperature Precipitation Wind Pressure Humidity
    00:00 +14°C° 0.8 mm 1 mps 752 mmHg 98%
    01:00 +14°C° 0.1 mm 1 mps 752 mmHg 98%
    02:00 +14°C° 0.1 mm 2 mps 751 mmHg 97%
    03:00 +14°C° 0.1 mm 2 mps 751 mmHg 97%
    04:00 +14°C° 0.4 mm 2 mps 751 mmHg 97%
    05:00 +14°C° 0.4 mm 2 mps 750 mmHg 97%
    06:00 +14°C° 0.4 mm 2 mps 750 mmHg 98%
    07:00 +13°C° 2.2 mm 3 mps 749 mmHg 98%
    08:00 +13°C° 2.2 mm 3 mps 749 mmHg 98%
    09:00 +13°C° 2.2 mm 3 mps 749 mmHg 98%
    10:00 +13°C° 2.1 mm 3 mps 749 mmHg 98%
    11:00 +13°C° 2.1 mm 3 mps 748 mmHg 98%
    12:00 +13°C° 2.1 mm 3 mps 748 mmHg 98%
    13:00 +13°C° 0.3 mm 3 mps 748 mmHg 97%
    14:00 +14°C° 0.3 mm 3 mps 748 mmHg 96%
    15:00 +14°C° 0.3 mm 3 mps 748 mmHg 95%
    16:00 +14°C° 0.3 mm 3 mps 749 mmHg 94%
    17:00 +13°C° 0.3 mm 3 mps 749 mmHg 94%
    18:00 +13°C° 0.3 mm 3 mps 749 mmHg 94%
    19:00 +12°C° 0.2 mm 3 mps 750 mmHg 94%
    20:00 +11°C° 0.2 mm 3 mps 750 mmHg 95%
    21:00 +11°C° 0.2 mm 3 mps 751 mmHg 95%
    22:00 +10°C° 0 mm 3 mps 751 mmHg 94%
    23:00 +10°C° 0 mm 3 mps 751 mmHg 94%

    20 June, Thursday

    Time Temperature Precipitation Wind Pressure Humidity
    00:00 +9°C° 0 mm 3 mps 751 mmHg 93%
    01:00 +9°C° 0 mm 3 mps 751 mmHg 94%
    02:00 +9°C° 0 mm 3 mps 751 mmHg 95%
    03:00 +8°C° 0 mm 3 mps 751 mmHg 95%
    04:00 +9°C° 0 mm 3 mps 752 mmHg 94%
    05:00 +10°C° 0 mm 3 mps 752 mmHg 94%
    06:00 +11°C° 0 mm 4 mps 752 mmHg 93%
    07:00 +12°C° 0 mm 4 mps 752 mmHg 88%
    08:00 +13°C° 0 mm 4 mps 753 mmHg 83%
    09:00 +15°C° 0 mm 4 mps 753 mmHg 78%
    10:00 +15°C° 0.1 mm 5 mps 753 mmHg 75%
    11:00 +16°C° 0.1 mm 5 mps 753 mmHg 72%
    12:00 +17°C° 0.1 mm 5 mps 753 mmHg 70%
    13:00 +16°C° 0.3 mm 5 mps 753 mmHg 71%
    14:00 +16°C° 0.3 mm 5 mps 753 mmHg 72%
    15:00 +16°C° 0.3 mm 5 mps 753 mmHg 74%
    16:00 +16°C° 0.1 mm 5 mps 753 mmHg 76%
    17:00 +15°C° 0.1 mm 4 mps 753 mmHg 78%
    18:00 +15°C° 0.1 mm 4 mps 753 mmHg 80%
    19:00 +14°C° 0.2 mm 4 mps 753 mmHg 83%
    20:00 +12°C° 0.2 mm 4 mps 753 mmHg 86%
    21:00 +11°C° 0.2 mm 4 mps 753 mmHg 89%
    22:00 +10°C° 0 mm 4 mps 753 mmHg 90%
    23:00 +10°C° 0 mm 4 mps 754 mmHg 91%

    21 June, Friday

    Time Temperature Precipitation Wind Pressure Humidity
    00:00 +8°C° 0 mm 4 mps 754 mmHg 92%
    01:00 +7°C° 0 mm 4 mps 754 mmHg 93%
    02:00 +7°C° 0 mm 4 mps 754 mmHg 93%
    03:00 +7°C° 0 mm 4 mps 754 mmHg 94%
    04:00 +7°C° 0 mm 4 mps 754 mmHg 93%
    05:00 +8°C° 0 mm 4 mps 754 mmHg 92%
    06:00 +9°C° 0 mm 5 mps 755 mmHg 91%
    07:00 +11°C° 0 mm 4 mps 755 mmHg 86%
    08:00 +13°C° 0 mm 4 mps 755 mmHg 81%
    09:00 +14°C° 0 mm 4 mps 756 mmHg 77%
    10:00 +15°C° 0.1 mm 4 mps 756 mmHg 73%
    11:00 +17°C° 0.1 mm 4 mps 756 mmHg 70%
    12:00 +17°C° 0.1 mm 5 mps 756 mmHg 66%
    13:00 +17°C° 0.1 mm 5 mps 756 mmHg 66%
    14:00 +17°C° 0.1 mm 5 mps 756 mmHg 66%
    15:00 +17°C° 0.1 mm 5 mps 756 mmHg 66%
    16:00 +17°C° 0 mm 4 mps 756 mmHg 68%
    17:00 +17°C° 0 mm 3 mps 756 mmHg 71%
    18:00 +17°C° 0 mm 2 mps 757 mmHg 74%
    19:00 +15°C° 0 mm 2 mps 757 mmHg 76%
    20:00 +13°C° 0 mm 2 mps 757 mmHg 78%
    21:00 +10°C° 0 mm 2 mps 758 mmHg 81%
    22:00 +10°C° 0 mm 1 mps 758 mmHg 83%
    23:00 +9°C° 0 mm 1 mps 758 mmHg 85%

    22 June, Saturday

    Time Temperature Precipitation Wind Pressure Humidity
    00:00 +9°C° 0 mm 1 mps 758 mmHg 87%
    01:00 +8°C° 0 mm 1 mps 758 mmHg 88%
    02:00 +8°C° 0 mm 1 mps 758 mmHg 88%
    03:00 +8°C° 0 mm 1 mps 759 mmHg 89%
    04:00 +9°C° 0 mm 1 mps 759 mmHg 88%
    05:00 +10°C° 0 mm 1 mps 759 mmHg 86%
    06:00 +11°C° 0 mm 1 mps 759 mmHg 85%
    07:00 +12°C° 0 mm 1 mps 759 mmHg 80%
    08:00 +14°C° 0 mm 2 mps 759 mmHg 75%
    09:00 +15°C° 0 mm 2 mps 759 mmHg 70%
    10:00 +16°C° 0 mm 2 mps 759 mmHg 68%
    11:00 +17°C° 0 mm 2 mps 759 mmHg 66%
    12:00 +18°C° 0 mm 3 mps 759 mmHg 63%
    13:00 +18°C° 0 mm 3 mps 759 mmHg 65%
    14:00 +18°C° 0 mm 4 mps 758 mmHg 67%
    15:00 +18°C° 0 mm 4 mps 758 mmHg 69%
    16:00 +17°C° 0 mm 4 mps 758 mmHg 72%
    17:00 +15°C° 0 mm 4 mps 758 mmHg 75%
    18:00 +14°C° 0 mm 4 mps 758 mmHg 78%
    19:00 +13°C° 0 mm 4 mps 758 mmHg 83%
    20:00 +11°C° 0 mm 3 mps 758 mmHg 89%
    21:00 +10°C° 0 mm 3 mps 759 mmHg 94%
    22:00 +10°C° 0 mm 3 mps 759 mmHg 94%
    23:00 +10°C° 0 mm 3 mps 759 mmHg 94%
    Show more